owner,sensor,date,latitude,longitude,relative_humidity,qcFlag 
COMPS,ioos:station:USF.COMPS:FHP:1,2016-05-01T00:00:00Z,28.1530,-82.8010,68.99,1111122 
COMPS,ioos:station:USF.COMPS:FHP:1,2016-05-01T00:06:00Z,28.1530,-82.8010,68.97,1111122 
COMPS,ioos:station:USF.COMPS:FHP:1,2016-05-01T00:12:00Z,28.1530,-82.8010,69.28,1111122 
COMPS,ioos:station:USF.COMPS:FHP:1,2016-05-01T00:18:00Z,28.1530,-82.8010,69.87,1111122 
COMPS,ioos:station:USF.COMPS:FHP:1,2016-05-01T00:24:00Z,28.1530,-82.8010,69.4,1111122 
COMPS,ioos:station:USF.COMPS:FHP:1,2016-05-01T00:30:00Z,28.1530,-82.8010,69.34,1111122 
COMPS,ioos:station:USF.COMPS:FHP:1,2016-05-01T00:36:00Z,28.1530,-82.8010,69.35,1111122 
COMPS,ioos:station:USF.COMPS:FHP:1,2016-05-01T00:42:00Z,28.1530,-82.8010,69.72,1111122 
COMPS,ioos:station:USF.COMPS:FHP:1,2016-05-01T00:48:00Z,28.1530,-82.8010,69.72,1111122 
COMPS,ioos:station:USF.COMPS:FHP:1,2016-05-01T00:54:00Z,28.1530,-82.8010,69.53,1111122 
COMPS,ioos:station:USF.COMPS:FHP:1,2016-05-01T01:00:00Z,28.1530,-82.8010,69.31,1111122 
COMPS,ioos:station:USF.COMPS:FHP:1,2016-05-01T01:06:00Z,28.1530,-82.8010,69.52,1111122 
COMPS,ioos:station:USF.COMPS:FHP:1,2016-05-01T01:12:00Z,28.1530,-82.8010,69.87,1111122 
COMPS,ioos:station:USF.COMPS:FHP:1,2016-05-01T01:18:00Z,28.1530,-82.8010,70.31,1111122 
COMPS,ioos:station:USF.COMPS:FHP:1,2016-05-01T01:24:00Z,28.1530,-82.8010,71.19,1111122 
COMPS,ioos:station:USF.COMPS:FHP:1,2016-05-01T01:30:00Z,28.1530,-82.8010,70.66,1111122 
COMPS,ioos:station:USF.COMPS:FHP:1,2016-05-01T01:36:00Z,28.1530,-82.8010,70.91,1111122 
COMPS,ioos:station:USF.COMPS:FHP:1,2016-05-01T01:42:00Z,28.1530,-82.8010,71.36,1111122 
COMPS,ioos:station:USF.COMPS:FHP:1,2016-05-01T01:48:00Z,28.1530,-82.8010,71.38,1111122 
COMPS,ioos:station:USF.COMPS:FHP:1,2016-05-01T01:54:00Z,28.1530,-82.8010,71.19,1111122 
COMPS,ioos:station:USF.COMPS:FHP:1,2016-05-01T02:00:00Z,28.1530,-82.8010,71.35,1111122 
COMPS,ioos:station:USF.COMPS:FHP:1,2016-05-01T02:06:00Z,28.1530,-82.8010,72.03,1111122 
COMPS,ioos:station:USF.COMPS:FHP:1,2016-05-01T02:12:00Z,28.1530,-82.8010,71.47,1111122 
COMPS,ioos:station:USF.COMPS:FHP:1,2016-05-01T02:18:00Z,28.1530,-82.8010,71.52,1111122 
COMPS,ioos:station:USF.COMPS:FHP:1,2016-05-01T02:24:00Z,28.1530,-82.8010,71.05,1111122 
COMPS,ioos:station:USF.COMPS:FHP:1,2016-05-01T02:30:00Z,28.1530,-82.8010,71.79,1111122 
COMPS,ioos:station:USF.COMPS:FHP:1,2016-05-01T02:36:00Z,28.1530,-82.8010,71.13,1111122 
COMPS,ioos:station:USF.COMPS:FHP:1,2016-05-01T02:42:00Z,28.1530,-82.8010,71.18,1111122 
COMPS,ioos:station:USF.COMPS:FHP:1,2016-05-01T02:48:00Z,28.1530,-82.8010,70.92,1111122 
COMPS,ioos:station:USF.COMPS:FHP:1,2016-05-01T02:54:00Z,28.1530,-82.8010,71.53,1111122 
COMPS,ioos:station:USF.COMPS:FHP:1,2016-05-01T03:00:00Z,28.1530,-82.8010,71.49,1111122 
COMPS,ioos:station:USF.COMPS:FHP:1,2016-05-01T03:06:00Z,28.1530,-82.8010,71.14,1111122 
COMPS,ioos:station:USF.COMPS:FHP:1,2016-05-01T03:12:00Z,28.1530,-82.8010,71.23,1111122 
COMPS,ioos:station:USF.COMPS:FHP:1,2016-05-01T03:18:00Z,28.1530,-82.8010,72.34,1111122 
COMPS,ioos:station:USF.COMPS:FHP:1,2016-05-01T03:24:00Z,28.1530,-82.8010,74.5,1111122 
COMPS,ioos:station:USF.COMPS:FHP:1,2016-05-01T03:30:00Z,28.1530,-82.8010,74.29,1111122 
COMPS,ioos:station:USF.COMPS:FHP:1,2016-05-01T03:36:00Z,28.1530,-82.8010,72.96,1111122 
COMPS,ioos:station:USF.COMPS:FHP:1,2016-05-01T03:42:00Z,28.1530,-82.8010,72.83,1111122 
COMPS,ioos:station:USF.COMPS:FHP:1,2016-05-01T03:48:00Z,28.1530,-82.8010,73.28,1111122 
COMPS,ioos:station:USF.COMPS:FHP:1,2016-05-01T03:54:00Z,28.1530,-82.8010,73.18,1111122 
COMPS,ioos:station:USF.COMPS:FHP:1,2016-05-01T04:00:00Z,28.1530,-82.8010,73.54,1111122 
COMPS,ioos:station:USF.COMPS:FHP:1,2016-05-01T04:06:00Z,28.1530,-82.8010,73.44,1111122 
COMPS,ioos:station:USF.COMPS:FHP:1,2016-05-01T04:12:00Z,28.1530,-82.8010,73.74,1111122 
COMPS,ioos:station:USF.COMPS:FHP:1,2016-05-01T04:18:00Z,28.1530,-82.8010,73.9,1111122 
COMPS,ioos:station:USF.COMPS:FHP:1,2016-05-01T04:24:00Z,28.1530,-82.8010,74.44,1111122 
COMPS,ioos:station:USF.COMPS:FHP:1,2016-05-01T04:30:00Z,28.1530,-82.8010,75.58,1111122 
COMPS,ioos:station:USF.COMPS:FHP:1,2016-05-01T04:36:00Z,28.1530,-82.8010,76.86,1111122 
COMPS,ioos:station:USF.COMPS:FHP:1,2016-05-01T04:42:00Z,28.1530,-82.8010,76.47,1111122 
COMPS,ioos:station:USF.COMPS:FHP:1,2016-05-01T04:48:00Z,28.1530,-82.8010,76.35,1111122 
COMPS,ioos:station:USF.COMPS:FHP:1,2016-05-01T04:54:00Z,28.1530,-82.8010,76.12,1111122 
COMPS,ioos:station:USF.COMPS:FHP:1,2016-05-01T05:00:00Z,28.1530,-82.8010,75.19,1111122 
COMPS,ioos:station:USF.COMPS:FHP:1,2016-05-01T05:06:00Z,28.1530,-82.8010,74.64,1111122 
COMPS,ioos:station:USF.COMPS:FHP:1,2016-05-01T05:12:00Z,28.1530,-82.8010,72.54,1111122 
COMPS,ioos:station:USF.COMPS:FHP:1,2016-05-01T05:18:00Z,28.1530,-82.8010,72.34,1111122 
COMPS,ioos:station:USF.COMPS:FHP:1,2016-05-01T05:24:00Z,28.1530,-82.8010,74.36,1111122 
COMPS,ioos:station:USF.COMPS:FHP:1,2016-05-01T05:30:00Z,28.1530,-82.8010,74.75,1111122 
COMPS,ioos:station:USF.COMPS:FHP:1,2016-05-01T05:36:00Z,28.1530,-82.8010,73.56,1111122 
COMPS,ioos:station:USF.COMPS:FHP:1,2016-05-01T05:42:00Z,28.1530,-82.8010,73.38,1111122 
COMPS,ioos:station:USF.COMPS:FHP:1,2016-05-01T05:48:00Z,28.1530,-82.8010,72.71,1111122 
COMPS,ioos:station:USF.COMPS:FHP:1,2016-05-01T05:54:00Z,28.1530,-82.8010,72.27,1111122 
COMPS,ioos:station:USF.COMPS:FHP:1,2016-05-01T06:00:00Z,28.1530,-82.8010,70.91,1111122 
COMPS,ioos:station:USF.COMPS:FHP:1,2016-05-01T06:06:00Z,28.1530,-82.8010,70.73,1111122 
COMPS,ioos:station:USF.COMPS:FHP:1,2016-05-01T06:12:00Z,28.1530,-82.8010,70.19,1111122 
COMPS,ioos:station:USF.COMPS:FHP:1,2016-05-01T06:18:00Z,28.1530,-82.8010,69.81,1111122 
COMPS,ioos:station:USF.COMPS:FHP:1,2016-05-01T06:24:00Z,28.1530,-82.8010,69.99,1111122 
COMPS,ioos:station:USF.COMPS:FHP:1,2016-05-01T06:30:00Z,28.1530,-82.8010,70.07,1111122 
COMPS,ioos:station:USF.COMPS:FHP:1,2016-05-01T06:36:00Z,28.1530,-82.8010,70.86,1111122 
COMPS,ioos:station:USF.COMPS:FHP:1,2016-05-01T06:42:00Z,28.1530,-82.8010,71.69,1111122 
COMPS,ioos:station:USF.COMPS:FHP:1,2016-05-01T06:48:00Z,28.1530,-82.8010,72.28,1111122 
COMPS,ioos:station:USF.COMPS:FHP:1,2016-05-01T06:54:00Z,28.1530,-82.8010,72.2,1111122 
COMPS,ioos:station:USF.COMPS:FHP:1,2016-05-01T07:00:00Z,28.1530,-82.8010,72.73,1111122 
COMPS,ioos:station:USF.COMPS:FHP:1,2016-05-01T07:06:00Z,28.1530,-82.8010,74.03,1111122 
COMPS,ioos:station:USF.COMPS:FHP:1,2016-05-01T07:12:00Z,28.1530,-82.8010,73.39,1111122 
COMPS,ioos:station:USF.COMPS:FHP:1,2016-05-01T07:18:00Z,28.1530,-82.8010,74.31,1111122 
COMPS,ioos:station:USF.COMPS:FHP:1,2016-05-01T07:24:00Z,28.1530,-82.8010,74.53,1111122 
COMPS,ioos:station:USF.COMPS:FHP:1,2016-05-01T07:30:00Z,28.1530,-82.8010,75.42,1111122 
COMPS,ioos:station:USF.COMPS:FHP:1,2016-05-01T07:36:00Z,28.1530,-82.8010,75.95,1111122 
COMPS,ioos:station:USF.COMPS:FHP:1,2016-05-01T07:42:00Z,28.1530,-82.8010,76.29,1111122 
COMPS,ioos:station:USF.COMPS:FHP:1,2016-05-01T07:48:00Z,28.1530,-82.8010,76.64,1111122 
COMPS,ioos:station:USF.COMPS:FHP:1,2016-05-01T07:54:00Z,28.1530,-82.8010,77.34,1111122 
COMPS,ioos:station:USF.COMPS:FHP:1,2016-05-01T08:00:00Z,28.1530,-82.8010,77.85,1111122 
COMPS,ioos:station:USF.COMPS:FHP:1,2016-05-01T08:06:00Z,28.1530,-82.8010,78.08,1111122 
COMPS,ioos:station:USF.COMPS:FHP:1,2016-05-01T08:12:00Z,28.1530,-82.8010,78.53,1111122 
COMPS,ioos:station:USF.COMPS:FHP:1,2016-05-01T08:18:00Z,28.1530,-82.8010,78.98,1111122 
COMPS,ioos:station:USF.COMPS:FHP:1,2016-05-01T08:24:00Z,28.1530,-82.8010,79.04,1111122 
COMPS,ioos:station:USF.COMPS:FHP:1,2016-05-01T08:30:00Z,28.1530,-82.8010,78.64,1111122 
COMPS,ioos:station:USF.COMPS:FHP:1,2016-05-01T08:36:00Z,28.1530,-82.8010,79.03,1111122 
COMPS,ioos:station:USF.COMPS:FHP:1,2016-05-01T08:42:00Z,28.1530,-82.8010,79.11,1111122 
COMPS,ioos:station:USF.COMPS:FHP:1,2016-05-01T08:48:00Z,28.1530,-82.8010,79.64,1111122 
COMPS,ioos:station:USF.COMPS:FHP:1,2016-05-01T08:54:00Z,28.1530,-82.8010,80.4,1111122 
COMPS,ioos:station:USF.COMPS:FHP:1,2016-05-01T09:00:00Z,28.1530,-82.8010,80.82,1111122 
COMPS,ioos:station:USF.COMPS:FHP:1,2016-05-01T09:06:00Z,28.1530,-82.8010,80.67,1111122 
COMPS,ioos:station:USF.COMPS:FHP:1,2016-05-01T09:12:00Z,28.1530,-82.8010,80.81,1111122 
COMPS,ioos:station:USF.COMPS:FHP:1,2016-05-01T09:18:00Z,28.1530,-82.8010,81.13,1111122 
COMPS,ioos:station:USF.COMPS:FHP:1,2016-05-01T09:24:00Z,28.1530,-82.8010,81.13,1111122 
COMPS,ioos:station:USF.COMPS:FHP:1,2016-05-01T09:30:00Z,28.1530,-82.8010,82.06,1111122 
COMPS,ioos:station:USF.COMPS:FHP:1,2016-05-01T09:36:00Z,28.1530,-82.8010,82.03,1111122 
COMPS,ioos:station:USF.COMPS:FHP:1,2016-05-01T09:42:00Z,28.1530,-82.8010,82.3,1111122 
COMPS,ioos:station:USF.COMPS:FHP:1,2016-05-01T09:48:00Z,28.1530,-82.8010,82.05,1111122 
COMPS,ioos:station:USF.COMPS:FHP:1,2016-05-01T09:54:00Z,28.1530,-82.8010,82.02,1111122 
COMPS,ioos:station:USF.COMPS:FHP:1,2016-05-01T10:00:00Z,28.1530,-82.8010,82.45,1111122 
COMPS,ioos:station:USF.COMPS:FHP:1,2016-05-01T10:06:00Z,28.1530,-82.8010,82.39,1111122 
COMPS,ioos:station:USF.COMPS:FHP:1,2016-05-01T10:12:00Z,28.1530,-82.8010,82.79,1111122 
COMPS,ioos:station:USF.COMPS:FHP:1,2016-05-01T10:18:00Z,28.1530,-82.8010,83.65,1111122 
COMPS,ioos:station:USF.COMPS:FHP:1,2016-05-01T10:24:00Z,28.1530,-82.8010,83.17,1111122 
COMPS,ioos:station:USF.COMPS:FHP:1,2016-05-01T10:30:00Z,28.1530,-82.8010,83.49,1111122 
COMPS,ioos:station:USF.COMPS:FHP:1,2016-05-01T10:36:00Z,28.1530,-82.8010,83.3,1111122 
COMPS,ioos:station:USF.COMPS:FHP:1,2016-05-01T10:42:00Z,28.1530,-82.8010,83.84,1111122 
COMPS,ioos:station:USF.COMPS:FHP:1,2016-05-01T10:48:00Z,28.1530,-82.8010,83.51,1111122 
COMPS,ioos:station:USF.COMPS:FHP:1,2016-05-01T10:54:00Z,28.1530,-82.8010,84.09,1111122 
COMPS,ioos:station:USF.COMPS:FHP:1,2016-05-01T11:00:00Z,28.1530,-82.8010,84.11,1111122 
COMPS,ioos:station:USF.COMPS:FHP:1,2016-05-01T11:06:00Z,28.1530,-82.8010,83.35,1111122 
COMPS,ioos:station:USF.COMPS:FHP:1,2016-05-01T11:12:00Z,28.1530,-82.8010,83.57,1111122 
COMPS,ioos:station:USF.COMPS:FHP:1,2016-05-01T11:18:00Z,28.1530,-82.8010,83.76,1111122 
COMPS,ioos:station:USF.COMPS:FHP:1,2016-05-01T11:24:00Z,28.1530,-82.8010,83.92,1111122 
COMPS,ioos:station:USF.COMPS:FHP:1,2016-05-01T11:30:00Z,28.1530,-82.8010,84.38,1111122 
COMPS,ioos:station:USF.COMPS:FHP:1,2016-05-01T11:36:00Z,28.1530,-82.8010,84.48,1111122 
COMPS,ioos:station:USF.COMPS:FHP:1,2016-05-01T11:42:00Z,28.1530,-82.8010,84.49,1111122 
COMPS,ioos:station:USF.COMPS:FHP:1,2016-05-01T11:48:00Z,28.1530,-82.8010,83.92,1111122 
COMPS,ioos:station:USF.COMPS:FHP:1,2016-05-01T11:54:00Z,28.1530,-82.8010,83.59,1111122 
COMPS,ioos:station:USF.COMPS:FHP:1,2016-05-01T12:00:00Z,28.1530,-82.8010,82.65,1111122 
COMPS,ioos:station:USF.COMPS:FHP:1,2016-05-01T12:06:00Z,28.1530,-82.8010,82.03,1111122 
COMPS,ioos:station:USF.COMPS:FHP:1,2016-05-01T12:12:00Z,28.1530,-82.8010,81.18,1111122 
COMPS,ioos:station:USF.COMPS:FHP:1,2016-05-01T12:18:00Z,28.1530,-82.8010,81.01,1111122 
COMPS,ioos:station:USF.COMPS:FHP:1,2016-05-01T12:24:00Z,28.1530,-82.8010,80.61,1111122 
COMPS,ioos:station:USF.COMPS:FHP:1,2016-05-01T12:30:00Z,28.1530,-82.8010,80.31,1111122 
COMPS,ioos:station:USF.COMPS:FHP:1,2016-05-01T12:36:00Z,28.1530,-82.8010,80.52,1111122 
COMPS,ioos:station:USF.COMPS:FHP:1,2016-05-01T12:42:00Z,28.1530,-82.8010,80.1,1111122 
COMPS,ioos:station:USF.COMPS:FHP:1,2016-05-01T12:48:00Z,28.1530,-82.8010,80.65,1111122 
COMPS,ioos:station:USF.COMPS:FHP:1,2016-05-01T12:54:00Z,28.1530,-82.8010,80.44,1111122 
COMPS,ioos:station:USF.COMPS:FHP:1,2016-05-01T13:00:00Z,28.1530,-82.8010,80.27,1111122 
COMPS,ioos:station:USF.COMPS:FHP:1,2016-05-01T13:06:00Z,28.1530,-82.8010,79.5,1111122 
COMPS,ioos:station:USF.COMPS:FHP:1,2016-05-01T13:12:00Z,28.1530,-82.8010,78.5,1111122 
COMPS,ioos:station:USF.COMPS:FHP:1,2016-05-01T13:18:00Z,28.1530,-82.8010,78.34,1111122 
COMPS,ioos:station:USF.COMPS:FHP:1,2016-05-01T13:24:00Z,28.1530,-82.8010,77.77,1111122 
COMPS,ioos:station:USF.COMPS:FHP:1,2016-05-01T13:30:00Z,28.1530,-82.8010,76.44,1111122 
COMPS,ioos:station:USF.COMPS:FHP:1,2016-05-01T13:36:00Z,28.1530,-82.8010,75.71,1111122 
COMPS,ioos:station:USF.COMPS:FHP:1,2016-05-01T13:42:00Z,28.1530,-82.8010,75.62,1111122 
COMPS,ioos:station:USF.COMPS:FHP:1,2016-05-01T13:48:00Z,28.1530,-82.8010,75.5,1111122 
COMPS,ioos:station:USF.COMPS:FHP:1,2016-05-01T13:54:00Z,28.1530,-82.8010,75.31,1111122 
COMPS,ioos:station:USF.COMPS:FHP:1,2016-05-01T14:00:00Z,28.1530,-82.8010,73.63,1111122 
COMPS,ioos:station:USF.COMPS:FHP:1,2016-05-01T14:06:00Z,28.1530,-82.8010,71.87,1111122 
COMPS,ioos:station:USF.COMPS:FHP:1,2016-05-01T14:12:00Z,28.1530,-82.8010,71.6,1111122 
COMPS,ioos:station:USF.COMPS:FHP:1,2016-05-01T14:18:00Z,28.1530,-82.8010,71.77,1111122 
COMPS,ioos:station:USF.COMPS:FHP:1,2016-05-01T14:24:00Z,28.1530,-82.8010,71.01,1111122 
COMPS,ioos:station:USF.COMPS:FHP:1,2016-05-01T14:30:00Z,28.1530,-82.8010,70.5,1111122 
COMPS,ioos:station:USF.COMPS:FHP:1,2016-05-01T14:36:00Z,28.1530,-82.8010,70.19,1111122 
COMPS,ioos:station:USF.COMPS:FHP:1,2016-05-01T14:42:00Z,28.1530,-82.8010,71.42,1111122 
COMPS,ioos:station:USF.COMPS:FHP:1,2016-05-01T14:48:00Z,28.1530,-82.8010,69.25,1111122 
COMPS,ioos:station:USF.COMPS:FHP:1,2016-05-01T14:54:00Z,28.1530,-82.8010,69.32,1111122 
COMPS,ioos:station:USF.COMPS:FHP:1,2016-05-01T15:00:00Z,28.1530,-82.8010,69.5,1111122 
COMPS,ioos:station:USF.COMPS:FHP:1,2016-05-01T15:06:00Z,28.1530,-82.8010,68.97,1111122 
COMPS,ioos:station:USF.COMPS:FHP:1,2016-05-01T15:12:00Z,28.1530,-82.8010,69.46,1111122 
COMPS,ioos:station:USF.COMPS:FHP:1,2016-05-01T15:18:00Z,28.1530,-82.8010,69.22,1111122 
COMPS,ioos:station:USF.COMPS:FHP:1,2016-05-01T15:24:00Z,28.1530,-82.8010,69.05,1111122 
COMPS,ioos:station:USF.COMPS:FHP:1,2016-05-01T15:30:00Z,28.1530,-82.8010,68.82,1111122 
COMPS,ioos:station:USF.COMPS:FHP:1,2016-05-01T15:36:00Z,28.1530,-82.8010,67.24,1111122 
COMPS,ioos:station:USF.COMPS:FHP:1,2016-05-01T15:42:00Z,28.1530,-82.8010,68.17,1111122 
COMPS,ioos:station:USF.COMPS:FHP:1,2016-05-01T15:48:00Z,28.1530,-82.8010,67.05,1111122 
COMPS,ioos:station:USF.COMPS:FHP:1,2016-05-01T15:54:00Z,28.1530,-82.8010,67.89,1111122 
COMPS,ioos:station:USF.COMPS:FHP:1,2016-05-01T16:00:00Z,28.1530,-82.8010,67.02,1111122 
COMPS,ioos:station:USF.COMPS:FHP:1,2016-05-01T16:06:00Z,28.1530,-82.8010,66.25,1111122 
COMPS,ioos:station:USF.COMPS:FHP:1,2016-05-01T16:12:00Z,28.1530,-82.8010,65.92,1111122 
COMPS,ioos:station:USF.COMPS:FHP:1,2016-05-01T16:18:00Z,28.1530,-82.8010,66.79,1111122 
COMPS,ioos:station:USF.COMPS:FHP:1,2016-05-01T16:24:00Z,28.1530,-82.8010,65.66,1111122 
COMPS,ioos:station:USF.COMPS:FHP:1,2016-05-01T16:30:00Z,28.1530,-82.8010,65.19,1111122 
COMPS,ioos:station:USF.COMPS:FHP:1,2016-05-01T16:36:00Z,28.1530,-82.8010,65.36,1111122 
COMPS,ioos:station:USF.COMPS:FHP:1,2016-05-01T16:42:00Z,28.1530,-82.8010,64.24,1111122 
COMPS,ioos:station:USF.COMPS:FHP:1,2016-05-01T16:48:00Z,28.1530,-82.8010,65.66,1111122 
COMPS,ioos:station:USF.COMPS:FHP:1,2016-05-01T16:54:00Z,28.1530,-82.8010,63.55,1111122 
COMPS,ioos:station:USF.COMPS:FHP:1,2016-05-01T17:00:00Z,28.1530,-82.8010,63.8,1111122 
COMPS,ioos:station:USF.COMPS:FHP:1,2016-05-01T17:06:00Z,28.1530,-82.8010,61.74,1111122 
COMPS,ioos:station:USF.COMPS:FHP:1,2016-05-01T17:12:00Z,28.1530,-82.8010,62.85,1111122 
COMPS,ioos:station:USF.COMPS:FHP:1,2016-05-01T17:18:00Z,28.1530,-82.8010,61.24,1111122 
COMPS,ioos:station:USF.COMPS:FHP:1,2016-05-01T17:24:00Z,28.1530,-82.8010,61.68,1111122 
COMPS,ioos:station:USF.COMPS:FHP:1,2016-05-01T17:30:00Z,28.1530,-82.8010,62.61,1111122 
COMPS,ioos:station:USF.COMPS:FHP:1,2016-05-01T17:36:00Z,28.1530,-82.8010,60.7,1111122 
COMPS,ioos:station:USF.COMPS:FHP:1,2016-05-01T17:42:00Z,28.1530,-82.8010,59.11,1111122 
COMPS,ioos:station:USF.COMPS:FHP:1,2016-05-01T17:48:00Z,28.1530,-82.8010,64.63,1111122 
COMPS,ioos:station:USF.COMPS:FHP:1,2016-05-01T17:54:00Z,28.1530,-82.8010,68.16,1111122 
COMPS,ioos:station:USF.COMPS:FHP:1,2016-05-01T18:00:00Z,28.1530,-82.8010,68.77,1111122 
COMPS,ioos:station:USF.COMPS:FHP:1,2016-05-01T18:06:00Z,28.1530,-82.8010,67.74,1111122 
COMPS,ioos:station:USF.COMPS:FHP:1,2016-05-01T18:12:00Z,28.1530,-82.8010,68.75,1111122 
COMPS,ioos:station:USF.COMPS:FHP:1,2016-05-01T18:18:00Z,28.1530,-82.8010,68.26,1111122 
COMPS,ioos:station:USF.COMPS:FHP:1,2016-05-01T18:24:00Z,28.1530,-82.8010,68.93,1111122 
COMPS,ioos:station:USF.COMPS:FHP:1,2016-05-01T18:30:00Z,28.1530,-82.8010,69.51,1111122 
COMPS,ioos:station:USF.COMPS:FHP:1,2016-05-01T18:36:00Z,28.1530,-82.8010,69.57,1111122 
COMPS,ioos:station:USF.COMPS:FHP:1,2016-05-01T18:42:00Z,28.1530,-82.8010,70.3,1111122 
COMPS,ioos:station:USF.COMPS:FHP:1,2016-05-01T18:48:00Z,28.1530,-82.8010,70.08,1111122 
COMPS,ioos:station:USF.COMPS:FHP:1,2016-05-01T18:54:00Z,28.1530,-82.8010,69.65,1111122 
COMPS,ioos:station:USF.COMPS:FHP:1,2016-05-01T19:00:00Z,28.1530,-82.8010,69.77,1111122 
COMPS,ioos:station:USF.COMPS:FHP:1,2016-05-01T19:06:00Z,28.1530,-82.8010,69.54,1111122 
COMPS,ioos:station:USF.COMPS:FHP:1,2016-05-01T19:12:00Z,28.1530,-82.8010,69.42,1111122 
COMPS,ioos:station:USF.COMPS:FHP:1,2016-05-01T19:18:00Z,28.1530,-82.8010,69.93,1111122 
COMPS,ioos:station:USF.COMPS:FHP:1,2016-05-01T19:24:00Z,28.1530,-82.8010,70.06,1111122 
COMPS,ioos:station:USF.COMPS:FHP:1,2016-05-01T19:30:00Z,28.1530,-82.8010,70.59,1111122 
COMPS,ioos:station:USF.COMPS:FHP:1,2016-05-01T19:36:00Z,28.1530,-82.8010,70.09,1111122 
COMPS,ioos:station:USF.COMPS:FHP:1,2016-05-01T19:42:00Z,28.1530,-82.8010,70.14,1111122 
COMPS,ioos:station:USF.COMPS:FHP:1,2016-05-01T19:48:00Z,28.1530,-82.8010,70.15,1111122 
COMPS,ioos:station:USF.COMPS:FHP:1,2016-05-01T19:54:00Z,28.1530,-82.8010,70.85,1111122 
COMPS,ioos:station:USF.COMPS:FHP:1,2016-05-01T20:00:00Z,28.1530,-82.8010,71.27,1111122 
COMPS,ioos:station:USF.COMPS:FHP:1,2016-05-01T20:06:00Z,28.1530,-82.8010,71.96,1111122 
COMPS,ioos:station:USF.COMPS:FHP:1,2016-05-01T20:12:00Z,28.1530,-82.8010,71.28,1111122 
COMPS,ioos:station:USF.COMPS:FHP:1,2016-05-01T20:18:00Z,28.1530,-82.8010,71.32,1111122 
COMPS,ioos:station:USF.COMPS:FHP:1,2016-05-01T20:24:00Z,28.1530,-82.8010,70.16,1111122 
COMPS,ioos:station:USF.COMPS:FHP:1,2016-05-01T20:30:00Z,28.1530,-82.8010,69.12,1111122 
COMPS,ioos:station:USF.COMPS:FHP:1,2016-05-01T20:36:00Z,28.1530,-82.8010,69.98,1111122 
COMPS,ioos:station:USF.COMPS:FHP:1,2016-05-01T20:42:00Z,28.1530,-82.8010,70.15,1111122 
COMPS,ioos:station:USF.COMPS:FHP:1,2016-05-01T20:48:00Z,28.1530,-82.8010,69.84,1111122 
COMPS,ioos:station:USF.COMPS:FHP:1,2016-05-01T20:54:00Z,28.1530,-82.8010,68.18,1111122 
COMPS,ioos:station:USF.COMPS:FHP:1,2016-05-01T21:00:00Z,28.1530,-82.8010,68.22,1111122 
COMPS,ioos:station:USF.COMPS:FHP:1,2016-05-01T21:06:00Z,28.1530,-82.8010,69.9,1111122 
COMPS,ioos:station:USF.COMPS:FHP:1,2016-05-01T21:12:00Z,28.1530,-82.8010,68.69,1111122 
COMPS,ioos:station:USF.COMPS:FHP:1,2016-05-01T21:18:00Z,28.1530,-82.8010,68.62,1111122 
COMPS,ioos:station:USF.COMPS:FHP:1,2016-05-01T21:24:00Z,28.1530,-82.8010,67.12,1111122 
COMPS,ioos:station:USF.COMPS:FHP:1,2016-05-01T21:30:00Z,28.1530,-82.8010,67.46,1111122 
COMPS,ioos:station:USF.COMPS:FHP:1,2016-05-01T21:36:00Z,28.1530,-82.8010,67.04,1111122 
COMPS,ioos:station:USF.COMPS:FHP:1,2016-05-01T21:42:00Z,28.1530,-82.8010,66.3,1111122 
COMPS,ioos:station:USF.COMPS:FHP:1,2016-05-01T21:48:00Z,28.1530,-82.8010,67.01,1111122 
COMPS,ioos:station:USF.COMPS:FHP:1,2016-05-01T21:54:00Z,28.1530,-82.8010,66.8,1111122 
COMPS,ioos:station:USF.COMPS:FHP:1,2016-05-01T22:00:00Z,28.1530,-82.8010,65.67,1111122 
COMPS,ioos:station:USF.COMPS:FHP:1,2016-05-01T22:06:00Z,28.1530,-82.8010,65.8,1111122 
COMPS,ioos:station:USF.COMPS:FHP:1,2016-05-01T22:12:00Z,28.1530,-82.8010,65.79,1111122 
COMPS,ioos:station:USF.COMPS:FHP:1,2016-05-01T22:18:00Z,28.1530,-82.8010,65.3,1111122 
COMPS,ioos:station:USF.COMPS:FHP:1,2016-05-01T22:24:00Z,28.1530,-82.8010,65.94,1111122 
COMPS,ioos:station:USF.COMPS:FHP:1,2016-05-01T22:30:00Z,28.1530,-82.8010,65.47,1111122 
COMPS,ioos:station:USF.COMPS:FHP:1,2016-05-01T22:36:00Z,28.1530,-82.8010,65.61,1111122 
COMPS,ioos:station:USF.COMPS:FHP:1,2016-05-01T22:42:00Z,28.1530,-82.8010,65.69,1111122 
COMPS,ioos:station:USF.COMPS:FHP:1,2016-05-01T22:48:00Z,28.1530,-82.8010,65.74,1111122 
COMPS,ioos:station:USF.COMPS:FHP:1,2016-05-01T22:54:00Z,28.1530,-82.8010,65.8,1111122 
COMPS,ioos:station:USF.COMPS:FHP:1,2016-05-01T23:00:00Z,28.1530,-82.8010,66.4,1111122 
COMPS,ioos:station:USF.COMPS:FHP:1,2016-05-01T23:06:00Z,28.1530,-82.8010,68.43,1111122 
COMPS,ioos:station:USF.COMPS:FHP:1,2016-05-01T23:12:00Z,28.1530,-82.8010,68.81,1111122 
COMPS,ioos:station:USF.COMPS:FHP:1,2016-05-01T23:18:00Z,28.1530,-82.8010,68.72,1111122 
COMPS,ioos:station:USF.COMPS:FHP:1,2016-05-01T23:24:00Z,28.1530,-82.8010,70.17,1111122 
COMPS,ioos:station:USF.COMPS:FHP:1,2016-05-01T23:30:00Z,28.1530,-82.8010,69.75,1111122 
COMPS,ioos:station:USF.COMPS:FHP:1,2016-05-01T23:36:00Z,28.1530,-82.8010,71.92,1111122 
COMPS,ioos:station:USF.COMPS:FHP:1,2016-05-01T23:42:00Z,28.1530,-82.8010,71.59,1111122 
COMPS,ioos:station:USF.COMPS:FHP:1,2016-05-01T23:48:00Z,28.1530,-82.8010,71.47,1111122 
COMPS,ioos:station:USF.COMPS:FHP:1,2016-05-01T23:54:00Z,28.1530,-82.8010,71.92,1111122 
COMPS,ioos:station:USF.COMPS:FHP:1,2016-05-02T00:00:00Z,28.1530,-82.8010,73.14,1111122 
COMPS,ioos:station:USF.COMPS:FHP:1,2016-05-02T00:06:00Z,28.1530,-82.8010,73.72,1111122 
COMPS,ioos:station:USF.COMPS:FHP:1,2016-05-02T00:12:00Z,28.1530,-82.8010,72.99,1111122 
COMPS,ioos:station:USF.COMPS:FHP:1,2016-05-02T00:18:00Z,28.1530,-82.8010,72.95,1111122 
COMPS,ioos:station:USF.COMPS:FHP:1,2016-05-02T00:24:00Z,28.1530,-82.8010,72.64,1111122 
COMPS,ioos:station:USF.COMPS:FHP:1,2016-05-02T00:30:00Z,28.1530,-82.8010,74.44,1111122 
COMPS,ioos:station:USF.COMPS:FHP:1,2016-05-02T00:36:00Z,28.1530,-82.8010,73.18,1111122 
COMPS,ioos:station:USF.COMPS:FHP:1,2016-05-02T00:42:00Z,28.1530,-82.8010,74.28,1111122 
COMPS,ioos:station:USF.COMPS:FHP:1,2016-05-02T00:48:00Z,28.1530,-82.8010,74.03,1111122 
COMPS,ioos:station:USF.COMPS:FHP:1,2016-05-02T00:54:00Z,28.1530,-82.8010,75.12,1111122 
COMPS,ioos:station:USF.COMPS:FHP:1,2016-05-02T01:00:00Z,28.1530,-82.8010,75.32,1111122 
COMPS,ioos:station:USF.COMPS:FHP:1,2016-05-02T01:06:00Z,28.1530,-82.8010,74.79,1111122 
COMPS,ioos:station:USF.COMPS:FHP:1,2016-05-02T01:12:00Z,28.1530,-82.8010,74.13,1111122 
COMPS,ioos:station:USF.COMPS:FHP:1,2016-05-02T01:18:00Z,28.1530,-82.8010,74.76,1111122 
COMPS,ioos:station:USF.COMPS:FHP:1,2016-05-02T01:24:00Z,28.1530,-82.8010,74.43,1111122 
COMPS,ioos:station:USF.COMPS:FHP:1,2016-05-02T01:30:00Z,28.1530,-82.8010,75.36,1111122 
COMPS,ioos:station:USF.COMPS:FHP:1,2016-05-02T01:36:00Z,28.1530,-82.8010,74.33,1111122 
COMPS,ioos:station:USF.COMPS:FHP:1,2016-05-02T01:42:00Z,28.1530,-82.8010,73.86,1111122 
COMPS,ioos:station:USF.COMPS:FHP:1,2016-05-02T01:48:00Z,28.1530,-82.8010,74.38,1111122 
COMPS,ioos:station:USF.COMPS:FHP:1,2016-05-02T01:54:00Z,28.1530,-82.8010,74.72,1111122 
COMPS,ioos:station:USF.COMPS:FHP:1,2016-05-02T02:00:00Z,28.1530,-82.8010,74.32,1111122 
COMPS,ioos:station:USF.COMPS:FHP:1,2016-05-02T02:06:00Z,28.1530,-82.8010,73.94,1111122 
COMPS,ioos:station:USF.COMPS:FHP:1,2016-05-02T02:12:00Z,28.1530,-82.8010,74.95,1111122 
COMPS,ioos:station:USF.COMPS:FHP:1,2016-05-02T02:18:00Z,28.1530,-82.8010,74.29,1111122 
COMPS,ioos:station:USF.COMPS:FHP:1,2016-05-02T02:24:00Z,28.1530,-82.8010,74.22,1111122 
COMPS,ioos:station:USF.COMPS:FHP:1,2016-05-02T02:30:00Z,28.1530,-82.8010,74.95,1111122 
COMPS,ioos:station:USF.COMPS:FHP:1,2016-05-02T02:36:00Z,28.1530,-82.8010,73.49,1111122 
COMPS,ioos:station:USF.COMPS:FHP:1,2016-05-02T02:42:00Z,28.1530,-82.8010,73.74,1111122 
COMPS,ioos:station:USF.COMPS:FHP:1,2016-05-02T02:48:00Z,28.1530,-82.8010,73.22,1111122 
COMPS,ioos:station:USF.COMPS:FHP:1,2016-05-02T02:54:00Z,28.1530,-82.8010,73.92,1111122 
COMPS,ioos:station:USF.COMPS:FHP:1,2016-05-02T03:00:00Z,28.1530,-82.8010,74.1,1111122 
COMPS,ioos:station:USF.COMPS:FHP:1,2016-05-02T03:06:00Z,28.1530,-82.8010,74.69,1111122 